This demonstration page uses our WeatherBlox Daily Observations layout. Learn more.

Left ArrowRight Arrow

34.16533, -84.80231

Hourly Observations for October 22, 2019

Temp ( °F °C ) Dew Point ( °F °C ) Humidity (%) Winds ( mph kmh ) Pressure ( in mb ) Visibility ( mi km ) Precip ( " mm )
12:53 am 00:53 Cloudy 68 20 64 17.8 87 87 SE 6 9 29.87 1012 10 16 0.00 0.00
1:53 am 01:53 Cloudy 68 20 64 17.8 87 87 SE 7 11 29.84 1010 10 16 0.00 0.00
2:53 am 02:53 Cloudy with Light Rain 70 21.1 63 17.2 79 79 SSE 9 15 29.83 1010 10 16 0.00 0.00
3:53 am 03:53 Mostly Cloudy 69 20.6 64 17.8 84 84 S 9 15 29.82 1010 10 16 0.00 0.00
4:51 am 04:51 Cloudy 68 20 64 18 88 88 VRB 3 6 29.85 1011 10 16 0.00 0.00
4:53 am 04:53 Cloudy 68 20 64 17.8 87 87 Calm 29.82 1010 10 16 0.00 0.00
5:11 am 05:11 Cloudy 68 20 64 17.8 87 87 VRB 6 9 29.88 1012 10 16 0.00 0.00
5:23 am 05:23 Cloudy with Light Rain 66 18.9 62 16.7 87 87 VRB 3 6 29.88 1012 5 8 0.01 0.25
5:53 am 05:53 Cloudy with Light Rain 63 17.2 60 15.6 90 90 Calm 29.87 1012 6 10 0.05 1.27
6:08 am 06:08 Cloudy with Rain 62 16.7 60 15.6 93 93 Calm 29.91 1013 4 6 0.02 0.51
6:17 am 06:17 Cloudy with Rain 61 16.1 57 13.9 87 87 VRB 3 6 29.91 1013 3 5 0.04 1.02
6:50 am 06:50 Cloudy with Light Rain 61 16 59 15 94 94 Calm 29.94 1014 10 16 0.06 1.52
6:53 am 06:53 Cloudy 61 16.1 59 15 93 93 Calm 29.91 1013 10 16 0.06 1.52
7:10 am 07:10 Cloudy 61 16.1 58 14.4 90 90 Calm 29.94 1014 10 16 0.00 0.00
7:24 am 07:24 Cloudy 61 16.1 58 14.4 90 90 Calm 29.94 1014 10 16 0.00 0.00
7:53 am 07:53 Cloudy 61 16.1 58 14.4 90 90 Calm 29.93 1014 10 16 0.00 0.00
8:53 am 08:53 Cloudy 60 15.6 57 13.9 90 90 Calm 29.94 1014 10 16 0.00 0.00
9:44 am 09:44 Mostly Sunny 63 17.2 58 14.4 84 84 Calm 30.00 1016 10 16 0.00 0.00
9:53 am 09:53 Partly Cloudy 63 17.2 58 14.4 84 84 Calm 29.97 1015 10 16 0.00 0.00
10:53 am 10:53 Mostly Sunny 66 18.9 56 13.3 70 70 VRB 3 6 29.98 1015 10 16 0.00 0.00
11:53 am 11:53 Sunny 69 20.6 49 9.4 49 49 VRB 3 6 29.98 1015 10 16 0.00 0.00
12:53 pm 12:53 Sunny 70 21.1 44 6.7 39 39 VRB 3 6 29.97 1015 10 16 0.00 0.00
1:53 pm 13:53 Sunny 72 22.2 40 4.4 31 31 VRB 3 6 29.94 1014 10 16 0.00 0.00
2:53 pm 14:53 Sunny 71 21.7 43 6.1 36 36 VRB 3 6 29.94 1014 10 16 0.00 0.00
3:53 pm 15:53 Sunny 73 22.8 41 5 32 32 VRB 3 6 29.93 1014 10 16 0.00 0.00
4:53 pm 16:53 Sunny 71 21.7 34 1.1 26 26 undefined N/A 29.95 1014 10 16 0.00 0.00
5:53 pm 17:53 Sunny 68 20 36 2.2 31 31 Calm 29.96 1014 10 16 0.00 0.00
6:53 pm 18:53 Sunny 65 18.3 36 2.2 34 34 Calm 29.97 1015 10 16 0.00 0.00
7:53 pm 19:53 Clear 55 12.8 42 5.6 62 62 Calm 30.00 1016 10 16 0.00 0.00
8:53 pm 20:53 Clear 50 10 43 6.1 77 77 Calm 30.02 1017 10 16 0.00 0.00
9:53 pm 21:53 Clear 52 11.1 42 5.6 69 69 Calm 30.04 1017 10 16 0.00 0.00
10:53 pm 22:53 Clear 51 10.6 42 5.6 71 71 Calm 30.07 1018 10 16 0.00 0.00
11:53 pm 23:53 Clear 50 10 42 5.6 74 74 Calm 30.09 1019 10 16 0.00 0.00

Powered by AerisWeather